Hourly Data Report for September 24, 2017

All times are specified in Local Standard Time (LST). Add 1 hour to adjust for Daylight Saving Time where and when it is observed.

ALERT CLIMATE
NUNAVUT

82°30'00.000" N
62°20'00.000" W
65.40 m
2400305
71355
ZLT

Download Data

Hourly Data (September 2017)
Hourly Data Report for September 24, 2017
Temp Definition
°C
Dew Point Temp Definition
°C
Rel Hum Definition
%
Wind Dir Definition
10's deg

Wind Spd Definition
km/h
Visibility Definition
km
Stn Press Definition
kPa
Hmdx Definition


Wind Chill Definition


Weather Definition


TIME
00:00 -8.8 -9.4 95 26 3   101.18   -10 LegendNANA
01:00 -8.8 -9.4 95 27 3   101.21   -10 LegendNANA
02:00 -8.9 -9.6 95 24 3   101.21   -11 LegendNANA
03:00 -9.4 -10.1 94 26 3   101.23   -11 LegendNANA
04:00 -10.4 -11.3 93 28 5   101.26   -13 LegendNANA
05:00 -11.0 -11.9 93 28 5   101.29   -14 LegendNANA
06:00 -10.2 -11.1 93 28 6   101.31   -14 LegendNANA
07:00 -9.2 -10.8 88 28 6   101.33   -13 LegendNANA
08:00 -9.2 -10.8 88 29 7   101.33   -13 LegendNANA
09:00 -8.5 -10.5 85 29 7   101.32   -12 LegendNANA
10:00 -8.2 -10.5 84 30 3   101.30   -10 LegendNANA
11:00 -9.0 -10.5 89 7 6   101.30   -12 LegendNANA
12:00 -8.6 -10.5 86 12 3   101.26   -10 LegendNANA
13:00 -8.4 -10.2 87 11 3   101.24   -10 LegendNANA
14:00 -8.1 -10.5 83   0   101.20     LegendNANA
15:00 -8.6 -10.4 87 36 2   101.17   -10 LegendNANA
16:00 -8.5 -10.1 89 8 4   101.16   -11 LegendNANA
17:00 -8.7 -9.7 92 4 6   101.14   -12 LegendNANA
18:00 -8.9 -9.8 93 4 4   101.09   -11 LegendNANA
19:00 -9.2 -10.6 89 1 8   101.05   -14 LegendNANA
20:00 -9.2 -10.4 91 3 7   101.01   -13 LegendNANA
21:00 -9.8 -11.3 89 36 8   100.98   -14 LegendNANA
22:00 -9.6 -11.0 90 36 7   100.93   -14 LegendNANA
23:00 -10.1 -10.8 95 9 8   100.86   -15 LegendNANA

Notes on Data Quality.

Legend

  • E = Estimated
  • M = Missing
  • NA = Not Available
  • ‡ = Partner data that is not subject to review by the National Climate Archives
Date modified: